| time (UTC) | temp F | wind direction | speed knots | gust knots | rain 1hr in | rain 24hr in | rain mn in | humidity % | barometer mb |
| 20260831133255 | 53 | 294 | 0.9 | 1.7 | 0.00 | 0.00 | 0.00 | 95 | 1016.5 |
| 20260831132750 | 53 | 29 | 0.9 | 0.9 | 0.00 | 0.00 | 0.00 | 95 | 1016.5 |
| 20260831132244 | 53 | 79 | 0.9 | 0.9 | 0.00 | 0.00 | 0.00 | 95 | 1016.9 |
| 20260831131738 | 53 | 101 | 0.0 | 6.1 | 0.00 | 0.00 | 0.00 | 95 | 1016.5 |
| 20260831131235 | 53 | 84 | 0.9 | 1.7 | 0.00 | 0.00 | 0.00 | 95 | 1016.9 |
| 20260831130730 | 53 | 187 | 1.7 | 2.6 | 0.00 | 0.00 | 0.00 | 95 | 1016.9 |
| 20260831130226 | 53 | 106 | 0.0 | 1.7 | 0.00 | 0.00 | 0.00 | 95 | 1016.9 |
| 20260831125724 | 53 | 331 | 3.5 | 5.2 | 0.00 | 0.00 | 0.00 | 95 | 1016.9 |
| 20260831125221 | 53 | 43 | 0.9 | 1.7 | 0.00 | 0.00 | 0.00 | 95 | 1016.9 |
| 20260831124715 | 53 | 86 | 0.9 | 2.6 | 0.00 | 0.00 | 0.00 | 95 | 1016.9 |
| 20260831124211 | 53 | 12 | 1.7 | 2.6 | 0.00 | 0.00 | 0.00 | 95 | 1016.9 |
| 20260831123711 | 53 | 95 | 0.0 | 2.6 | 0.00 | 0.00 | 0.00 | 94 | 1016.9 |
| 20260831123210 | 53 | 28 | 0.9 | 2.6 | 0.00 | 0.00 | 0.00 | 94 | 1017.2 |
| 20260831122709 | 53 | 27 | 0.9 | 1.7 | 0.00 | 0.00 | 0.00 | 94 | 1016.9 |
| 20260831122200 | 53 | 324 | 0.9 | 0.9 | 0.00 | 0.00 | 0.00 | 94 | 1017.2 |
| 20260831121659 | 54 | 94 | 0.9 | 5.2 | 0.00 | 0.00 | 0.00 | 94 | 1017.2 |
| 20260831121156 | 54 | 88 | 0.9 | 1.7 | 0.00 | 0.00 | 0.00 | 94 | 1016.9 |
| 20260831120651 | 54 | 31 | 1.7 | 1.7 | 0.00 | 0.00 | 0.00 | 94 | 1017.2 |
| 20260831120145 | 54 | 58 | 0.9 | 0.9 | 0.00 | 0.00 | 0.00 | 94 | 1017.2 |
| 20260831115642 | 54 | 295 | 0.9 | 2.6 | 0.00 | 0.00 | 0.00 | 94 | 1017.5 |
| 20260831115137 | 54 | 102 | 0.0 | 0.9 | 0.00 | 0.00 | 0.00 | 94 | 1017.5 |
| 20260831114636 | 54 | 75 | 0.9 | 1.7 | 0.00 | 0.00 | 0.00 | 94 | 1017.5 |
| 20260831114131 | 54 | 41 | 1.7 | 1.7 | 0.00 | 0.00 | 0.00 | 94 | 1017.5 |
| 20260831113630 | 54 | 356 | 1.7 | 2.6 | 0.00 | 0.00 | 0.00 | 94 | 1017.5 |
| 20260831113126 | 54 | 56 | 1.7 | 2.6 | 0.00 | 0.00 | 0.00 | 94 | 1017.5 |
| 20260831112624 | 54 | 59 | 0.9 | 0.9 | 0.00 | 0.00 | 0.00 | 94 | 1017.5 |
| 20260831112119 | 54 | 315 | 3.5 | 3.5 | 0.00 | 0.00 | 0.00 | 94 | 1017.9 |
| 20260831111610 | 54 | 147 | 0.9 | 0.9 | 0.00 | 0.00 | 0.00 | 93 | 1017.9 |
| 20260831111105 | 54 | 104 | 0.0 | 0.9 | 0.00 | 0.00 | 0.00 | 93 | 1017.5 |
| 20260831110600 | 55 | 300 | 2.6 | 5.2 | 0.00 | 0.00 | 0.00 | 93 | 1017.9 |
| 20260831110055 | 55 | 75 | 0.9 | 5.2 | 0.00 | 0.00 | 0.00 | 93 | 1017.9 |
| 20260831105554 | 55 | 51 | 0.9 | 2.6 | 0.00 | 0.00 | 0.00 | 93 | 1017.9 |
| 20260831105049 | 55 | 56 | 0.0 | 2.6 | 0.00 | 0.00 | 0.00 | 93 | 1017.5 |
| 20260831104546 | 55 | 322 | 1.7 | 3.5 | 0.00 | 0.00 | 0.00 | 93 | 1017.9 |
| 20260831104042 | 55 | 80 | 0.9 | 2.6 | 0.00 | 0.00 | 0.00 | 93 | 1017.9 |
| 20260831103537 | 55 | 82 | 0.9 | 2.6 | 0.00 | 0.00 | 0.00 | 93 | 1017.9 |
| 20260831103033 | 55 | 312 | 1.7 | 3.5 | 0.00 | 0.00 | 0.00 | 93 | 1017.9 |
| 20260831102532 | 55 | 307 | 1.7 | 1.7 | 0.00 | 0.00 | 0.00 | 92 | 1017.9 |
| 20260831102028 | 55 | 92 | 0.9 | 0.9 | 0.00 | 0.00 | 0.00 | 92 | 1017.9 |
| 20260831101522 | 55 | 91 | 0.9 | 2.6 | 0.00 | 0.00 | 0.00 | 92 | 1017.9 |
| 20260831101019 | 55 | 329 | 0.9 | 1.7 | 0.00 | 0.00 | 0.00 | 92 | 1017.9 |
| 20260831100514 | 55 | 350 | 0.9 | 5.2 | 0.00 | 0.00 | 0.00 | 92 | 1018.2 |
| 20260831100010 | 55 | 81 | 0.9 | 3.5 | 0.00 | 0.00 | 0.00 | 92 | 1018.2 |
| 20260831095509 | 55 | 62 | 0.9 | 1.7 | 0.00 | 0.00 | 0.00 | 92 | 1018.2 |
| 20260831095004 | 55 | 25 | 0.9 | 2.6 | 0.00 | 0.00 | 0.00 | 91 | 1018.2 |
| 20260831094500 | 55 | 109 | 0.0 | 3.5 | 0.00 | 0.00 | 0.00 | 91 | 1018.2 |
| 20260831093955 | 55 | 90 | 0.9 | 0.9 | 0.00 | 0.00 | 0.00 | 91 | 1018.2 |
| 20260831093450 | 55 | 94 | 1.7 | 1.7 | 0.00 | 0.00 | 0.00 | 91 | 1018.5 |
| 20260831092947 | 55 | 152 | 0.9 | 1.7 | 0.00 | 0.00 | 0.00 | 91 | 1018.5 |
| 20260831092442 | 55 | 79 | 0.0 | 1.7 | 0.00 | 0.00 | 0.00 | 90 | 1018.5 |
| 20260831091937 | 55 | 98 | 0.9 | 0.9 | 0.00 | 0.00 | 0.00 | 90 | 1018.5 |
| 20260831091433 | 55 | 57 | 0.9 | 1.7 | 0.00 | 0.00 | 0.00 | 90 | 1018.5 |
| 20260831090927 | 56 | 89 | 0.0 | 0.9 | 0.00 | 0.00 | 0.00 | 90 | 1018.5 |
| 20260831090424 | 56 | 297 | 2.6 | 5.2 | 0.00 | 0.00 | 0.00 | 90 | 1018.5 |
| 20260831085920 | 56 | 58 | 0.9 | 3.5 | 0.00 | 0.00 | 0.00 | 90 | 1018.5 |
| 20260831085415 | 56 | 43 | 0.9 | 3.5 | 0.00 | 0.00 | 0.00 | 89 | 1018.5 |
| 20260831084914 | 56 | 74 | 0.9 | 5.2 | 0.00 | 0.00 | 0.00 | 89 | 1018.5 |
| 20260831084410 | 56 | 75 | 0.9 | 2.6 | 0.00 | 0.00 | 0.00 | 89 | 1018.5 |
| 20260831083907 | 56 | 344 | 1.7 | 2.6 | 0.00 | 0.00 | 0.00 | 90 | 1018.5 |
| 20260831083402 | 56 | 77 | 0.9 | 1.7 | 0.00 | 0.00 | 0.00 | 89 | 1018.9 |
| 20260831082900 | 56 | 41 | 1.7 | 2.6 | 0.00 | 0.00 | 0.00 | 89 | 1018.9 |
| 20260831082400 | 56 | 99 | 0.0 | 0.9 | 0.00 | 0.00 | 0.00 | 89 | 1018.9 |
| 20260831081856 | 56 | 82 | 0.9 | 0.9 | 0.00 | 0.00 | 0.00 | 89 | 1018.9 |
| 20260831081351 | 56 | 104 | 0.0 | 0.9 | 0.00 | 0.00 | 0.00 | 89 | 1018.9 |
| 20260831080847 | 56 | 69 | 0.0 | 0.9 | 0.00 | 0.00 | 0.00 | 89 | 1019.2 |
| 20260831080342 | 56 | 357 | 1.7 | 1.7 | 0.00 | 0.00 | 0.00 | 89 | 1019.2 |
| 20260831075838 | 56 | 73 | 0.0 | 1.7 | 0.00 | 0.00 | 0.00 | 89 | 1019.2 |
| 20260831075332 | 56 | 52 | 0.9 | 0.9 | 0.00 | 0.00 | 0.00 | 89 | 1019.2 |
| 20260831074828 | 56 | 105 | 0.0 | 0.9 | 0.00 | 0.00 | 0.00 | 89 | 1019.2 |
| 20260831074327 | 56 | 18 | 1.7 | 2.6 | 0.00 | 0.00 | 0.00 | 89 | 1019.2 |
| 20260831073823 | 56 | 86 | 0.0 | 2.6 | 0.00 | 0.00 | 0.00 | 89 | 1019.2 |
| 20260831073321 | 56 | 76 | 0.0 | 0.9 | 0.00 | 0.00 | 0.00 | 89 | 1019.2 |
| 20260831072817 | 56 | 95 | 0.0 | 0.0 | 0.00 | 0.00 | 0.00 | 89 | 1019.6 |
| 20260831072313 | 56 | 92 | 0.9 | 0.9 | 0.00 | 0.00 | 0.00 | 89 | 1019.6 |
| 20260831071809 | 56 | 69 | 0.0 | 0.9 | 0.00 | 0.00 | 0.00 | 89 | 1019.6 |
| 20260831071307 | 56 | 101 | 0.0 | 0.9 | 0.00 | 0.00 | 0.00 | 89 | 1019.6 |
| 20260831070803 | 56 | 97 | 0.0 | 0.9 | 0.00 | 0.00 | 0.00 | 89 | 1019.6 |
| 20260831070302 | 56 | 98 | 0.0 | 0.9 | 0.00 | 0.00 | 0.00 | 89 | 1019.6 |
| 20260831065801 | 56 | 98 | 0.0 | 1.7 | 0.00 | 0.00 | 0.00 | 88 | 1019.6 |
| 20260831065259 | 56 | 90 | 0.0 | 0.9 | 0.00 | 0.00 | 0.00 | 88 | 1019.9 |
| 20260831064754 | 56 | 93 | 0.0 | 0.9 | 0.00 | 0.00 | 0.00 | 88 | 1019.9 |
| 20260831064249 | 56 | 100 | 0.0 | 0.9 | 0.00 | 0.00 | 0.00 | 88 | 1019.9 |
| 20260831063745 | 56 | 95 | 0.0 | 0.0 | 0.00 | 0.00 | 0.00 | 88 | 1019.9 |
| 20260831063239 | 56 | 90 | 0.0 | 1.7 | 0.00 | 0.00 | 0.00 | 88 | 1019.9 |
| 20260831062734 | 56 | 94 | 0.0 | 0.0 | 0.00 | 0.00 | 0.00 | 88 | 1020.2 |
| 20260831062229 | 56 | 91 | 0.0 | 0.9 | 0.00 | 0.00 | 0.00 | 87 | 1019.9 |
| 20260831061727 | 56 | 97 | 0.0 | 0.9 | 0.00 | 0.00 | 0.00 | 87 | 1019.9 |
| 20260831061222 | 57 | 47 | 1.7 | 1.7 | 0.00 | 0.00 | 0.00 | 87 | 1020.2 |
| 20260831060719 | 57 | 70 | 0.0 | 0.9 | 0.00 | 0.00 | 0.00 | 87 | 1020.2 |
| 20260831060218 | 57 | 91 | 0.0 | 0.9 | 0.00 | 0.00 | 0.00 | 86 | 1020.2 |
| 20260831055713 | 57 | 88 | 0.0 | 0.9 | 0.00 | 0.00 | 0.00 | 86 | 1020.2 |
| 20260831055207 | 57 | 95 | 0.9 | 0.9 | 0.00 | 0.00 | 0.00 | 86 | 1020.2 |
| 20260831054702 | 57 | 94 | 0.0 | 0.9 | 0.00 | 0.00 | 0.00 | 86 | 1020.2 |
| 20260831054201 | 57 | 82 | 0.9 | 1.7 | 0.00 | 0.00 | 0.00 | 86 | 1020.2 |
| 20260831053656 | 57 | 111 | 0.0 | 0.9 | 0.00 | 0.00 | 0.00 | 86 | 1020.2 |
| 20260831053154 | 57 | 91 | 0.0 | 0.9 | 0.00 | 0.00 | 0.00 | 86 | 1020.2 |
| 20260831052649 | 57 | 312 | 0.9 | 0.9 | 0.00 | 0.00 | 0.00 | 85 | 1020.2 |
| 20260831052148 | 57 | 103 | 0.9 | 1.7 | 0.00 | 0.00 | 0.00 | 85 | 1020.6 |
| 20260831051646 | 57 | 104 | 0.0 | 0.9 | 0.00 | 0.00 | 0.00 | 85 | 1020.6 |
| 20260831051145 | 58 | 87 | 0.9 | 1.7 | 0.00 | 0.00 | 0.00 | 85 | 1020.6 |
| 20260831050640 | 58 | 116 | 0.9 | 1.7 | 0.00 | 0.00 | 0.00 | 84 | 1020.6 |
| 20260831050139 | 58 | 102 | 0.0 | 1.7 | 0.00 | 0.00 | 0.00 | 84 | 1020.6 |
| 20260831045638 | 58 | 95 | 0.0 | 0.9 | 0.00 | 0.00 | 0.00 | 83 | 1020.6 |
| 20260831045133 | 58 | 313 | 0.0 | 1.7 | 0.00 | 0.00 | 0.00 | 83 | 1020.6 |
| 20260831044629 | 59 | 10 | 0.9 | 1.7 | 0.00 | 0.00 | 0.00 | 83 | 1020.6 |
| 20260831044124 | 59 | 102 | 0.0 | 0.0 | 0.00 | 0.00 | 0.00 | 83 | 1020.9 |
| 20260831043619 | 59 | 87 | 0.9 | 1.7 | 0.00 | 0.00 | 0.00 | 82 | 1020.9 |
| 20260831043114 | 59 | 87 | 0.0 | 1.7 | 0.00 | 0.00 | 0.00 | 82 | 1020.9 |
| 20260831042613 | 59 | 106 | 0.9 | 1.7 | 0.00 | 0.00 | 0.00 | 81 | 1020.9 |
| 20260831042103 | 59 | 316 | 0.9 | 1.7 | 0.00 | 0.00 | 0.00 | 81 | 1020.9 |
| 20260831041558 | 60 | 317 | 3.5 | 5.2 | 0.00 | 0.00 | 0.00 | 81 | 1020.9 |
| 20260831041057 | 60 | 79 | 0.0 | 0.9 | 0.00 | 0.00 | 0.00 | 80 | 1020.9 |
| 20260831040552 | 60 | 99 | 0.0 | 0.9 | 0.00 | 0.00 | 0.00 | 80 | 1020.9 |
| 20260831040051 | 60 | 96 | 0.0 | 1.7 | 0.00 | 0.00 | 0.00 | 80 | 1021.3 |
| 20260831035543 | 60 | 86 | 0.0 | 1.7 | 0.00 | 0.00 | 0.00 | 80 | 1020.9 |
| 20260831035039 | 60 | 22 | 0.9 | 2.6 | 0.00 | 0.00 | 0.00 | 80 | 1020.9 |
| 20260831034538 | 60 | 105 | 0.0 | 1.7 | 0.00 | 0.00 | 0.00 | 80 | 1020.9 |
| 20260831034034 | 60 | 94 | 0.0 | 0.9 | 0.00 | 0.00 | 0.00 | 79 | 1020.9 |
| 20260831033529 | 60 | 74 | 0.0 | 0.9 | 0.00 | 0.00 | 0.00 | 79 | 1020.9 |
| 20260831033025 | 60 | 102 | 0.0 | 0.9 | 0.00 | 0.00 | 0.00 | 79 | 1021.3 |
| 20260831032524 | 60 | 67 | 0.0 | 0.9 | 0.00 | 0.00 | 0.00 | 79 | 1020.9 |
| 20260831032020 | 60 | 102 | 0.0 | 0.9 | 0.00 | 0.00 | 0.00 | 79 | 1021.3 |
| 20260831031519 | 60 | 110 | 0.9 | 1.7 | 0.00 | 0.00 | 0.00 | 79 | 1020.9 |
| 20260831031019 | 61 | 91 | 0.0 | 1.7 | 0.00 | 0.00 | 0.00 | 78 | 1020.9 |
| 20260831030518 | 61 | 164 | 0.0 | 0.9 | 0.00 | 0.00 | 0.00 | 78 | 1020.9 |
| 20260831030017 | 61 | 115 | 0.0 | 0.9 | 0.00 | 0.00 | 0.00 | 78 | 1020.9 |
| 20260831025515 | 61 | 92 | 0.0 | 0.9 | 0.00 | 0.00 | 0.00 | 78 | 1020.9 |
| 20260831025011 | 61 | 86 | 0.9 | 1.7 | 0.00 | 0.00 | 0.00 | 78 | 1020.9 |
| 20260831024501 | 61 | 155 | 0.0 | 0.9 | 0.00 | 0.00 | 0.00 | 77 | 1020.9 |
| 20260831024000 | 61 | 108 | 0.0 | 0.0 | 0.00 | 0.00 | 0.00 | 77 | 1021.3 |
| 20260831023458 | 61 | 65 | 0.9 | 1.7 | 0.00 | 0.00 | 0.00 | 77 | 1021.3 |
| 20260831022953 | 62 | 17 | 1.7 | 3.5 | 0.00 | 0.00 | 0.00 | 77 | 1021.3 |
| 20260831022452 | 62 | 79 | 0.9 | 2.6 | 0.00 | 0.00 | 0.00 | 76 | 1021.3 |
| 20260831021948 | 62 | 345 | 1.7 | 2.6 | 0.00 | 0.00 | 0.00 | 76 | 1021.3 |
| 20260831021446 | 62 | 97 | 0.0 | 0.0 | 0.00 | 0.00 | 0.00 | 76 | 1021.3 |
| 20260831020943 | 62 | 98 | 0.9 | 2.6 | 0.00 | 0.00 | 0.00 | 75 | 1021.3 |
| 20260831020442 | 62 | 63 | 0.0 | 1.7 | 0.00 | 0.00 | 0.00 | 75 | 1021.3 |
| 20260831015937 | 62 | 79 | 0.9 | 0.9 | 0.00 | 0.00 | 0.00 | 75 | 1021.3 |
| 20260831015433 | 62 | 299 | 1.7 | 2.6 | 0.00 | 0.00 | 0.00 | 74 | 1021.6 |
| 20260831014928 | 63 | 0 | 1.7 | 3.5 | 0.00 | 0.00 | 0.00 | 73 | 1021.3 |
| 20260831014423 | 63 | 104 | 0.0 | 2.6 | 0.00 | 0.00 | 0.00 | 72 | 1021.3 |
| 20260831013919 | 63 | 57 | 0.9 | 1.7 | 0.00 | 0.00 | 0.00 | 72 | 1021.3 |
| 20260831013414 | 63 | 103 | 0.0 | 1.7 | 0.00 | 0.00 | 0.00 | 72 | 1021.3 |
| 20260831012908 | 63 | 84 | 0.0 | 0.9 | 0.00 | 0.00 | 0.00 | 71 | 1021.3 |
| 20260831012403 | 64 | 115 | 0.9 | 0.9 | 0.00 | 0.00 | 0.00 | 71 | 1021.6 |
| 20260831011858 | 64 | 88 | 0.9 | 0.9 | 0.00 | 0.00 | 0.00 | 70 | 1021.3 |
| 20260831011352 | 64 | 115 | 0.0 | 1.7 | 0.00 | 0.00 | 0.00 | 70 | 1021.6 |
| 20260831010848 | 64 | 90 | 0.9 | 1.7 | 0.00 | 0.00 | 0.00 | 70 | 1021.6 |
| 20260831010348 | 64 | 84 | 0.9 | 1.7 | 0.00 | 0.00 | 0.00 | 70 | 1021.6 |
| 20260831005844 | 64 | 352 | 1.7 | 1.7 | 0.00 | 0.00 | 0.00 | 70 | 1021.6 |
| 20260831005339 | 64 | 19 | 0.9 | 1.7 | 0.00 | 0.00 | 0.00 | 69 | 1021.6 |
| 20260831004834 | 64 | 81 | 0.9 | 1.7 | 0.00 | 0.00 | 0.00 | 70 | 1021.6 |
| 20260831004330 | 64 | 71 | 0.0 | 1.7 | 0.00 | 0.00 | 0.00 | 69 | 1021.6 |
| 20260831003826 | 64 | 164 | 1.7 | 3.5 | 0.00 | 0.00 | 0.00 | 69 | 1021.9 |
| 20260831003322 | 64 | 98 | 0.0 | 1.7 | 0.00 | 0.00 | 0.00 | 69 | 1021.6 |
| 20260831002820 | 64 | 106 | 0.0 | 0.9 | 0.00 | 0.00 | 0.00 | 69 | 1021.6 |
| 20260831002314 | 63 | 77 | 1.7 | 2.6 | 0.00 | 0.00 | 0.00 | 70 | 1021.9 |
| 20260831001810 | 64 | 73 | 0.9 | 1.7 | 0.00 | 0.00 | 0.00 | 69 | 1021.9 |
| 20260831001305 | 63 | 290 | 1.7 | 1.7 | 0.00 | 0.00 | 0.00 | 69 | 1021.9 |
| 20260831000803 | 64 | 104 | 0.0 | 6.1 | 0.00 | 0.00 | 0.00 | 68 | 1021.9 |
| 20260831000303 | 64 | 47 | 2.6 | 2.6 | 0.00 | 0.00 | 0.00 | 67 | 1021.9 |
| 20260830235801 | 64 | 323 | 2.6 | 5.2 | 0.00 | 0.00 | 0.00 | 67 | 1021.9 |
| 20260830235256 | 65 | 296 | 1.7 | 2.6 | 0.00 | 0.00 | 0.00 | 65 | 1021.9 |
| 20260830234751 | 66 | 358 | 0.9 | 2.6 | 0.00 | 0.00 | 0.00 | 63 | 1021.9 |
| 20260830234247 | 66 | 82 | 0.9 | 1.7 | 0.00 | 0.00 | 0.00 | 63 | 1021.6 |
| 20260830233743 | 66 | 77 | 0.9 | 5.2 | 0.00 | 0.00 | 0.00 | 64 | 1021.9 |
| 20260830233238 | 66 | 215 | 1.7 | 7.0 | 0.00 | 0.00 | 0.00 | 64 | 1021.6 |
| 20260830232733 | 66 | 121 | 0.0 | 3.5 | 0.00 | 0.00 | 0.00 | 63 | 1021.9 |
| 20260830232229 | 65 | 105 | 1.7 | 2.6 | 0.00 | 0.00 | 0.00 | 64 | 1021.9 |
| 20260830231726 | 65 | 45 | 0.9 | 2.6 | 0.00 | 0.00 | 0.00 | 63 | 1021.9 |
| 20260830231225 | 66 | 76 | 0.9 | 2.6 | 0.00 | 0.00 | 0.00 | 62 | 1021.9 |
| 20260830230720 | 66 | 60 | 1.7 | 2.6 | 0.00 | 0.00 | 0.00 | 60 | 1021.9 |
| 20260830230215 | 67 | 244 | 1.7 | 1.7 | 0.00 | 0.00 | 0.00 | 59 | 1021.9 |
| 20260830225709 | 68 | 98 | 0.9 | 3.5 | 0.00 | 0.00 | 0.00 | 59 | 1021.9 |
| 20260830225209 | 68 | 19 | 0.0 | 2.6 | 0.00 | 0.00 | 0.00 | 58 | 1021.9 |
| 20260830224708 | 72 | 301 | 2.6 | 3.5 | 0.00 | 0.00 | 0.00 | 52 | 1021.9 |
| 20260830224204 | 71 | 179 | 2.6 | 3.5 | 0.00 | 0.00 | 0.00 | 52 | 1021.6 |
| 20260830223701 | 71 | 105 | 0.9 | 5.2 | 0.00 | 0.00 | 0.00 | 53 | 1021.9 |
| 20260830223156 | 71 | 216 | 0.9 | 3.5 | 0.00 | 0.00 | 0.00 | 54 | 1021.9 |
| 20260830222650 | 69 | 139 | 0.9 | 1.7 | 0.00 | 0.00 | 0.00 | 55 | 1021.6 |
| 20260830222145 | 69 | 116 | 0.9 | 1.7 | 0.00 | 0.00 | 0.00 | 55 | 1021.9 |
| 20260830221636 | 70 | 77 | 0.9 | 5.2 | 0.00 | 0.00 | 0.00 | 53 | 1021.9 |
| 20260830221132 | 70 | 90 | 0.0 | 2.6 | 0.00 | 0.00 | 0.00 | 55 | 1021.9 |
| 20260830220627 | 70 | 108 | 1.7 | 3.5 | 0.00 | 0.00 | 0.00 | 53 | 1021.9 |
| 20260830220126 | 70 | 139 | 0.9 | 2.6 | 0.00 | 0.00 | 0.00 | 54 | 1022.3 |
| 20260830215625 | 69 | 121 | 0.0 | 3.5 | 0.00 | 0.00 | 0.00 | 55 | 1022.3 |
| 20260830215120 | 71 | 111 | 1.7 | 1.7 | 0.00 | 0.00 | 0.00 | 53 | 1022.3 |
| 20260830214615 | 70 | 106 | 0.9 | 1.7 | 0.00 | 0.00 | 0.00 | 52 | 1022.3 |
| 20260830214109 | 68 | 113 | 1.7 | 2.6 | 0.00 | 0.00 | 0.00 | 55 | 1022.3 |
| 20260830213609 | 69 | 105 | 1.7 | 1.7 | 0.00 | 0.00 | 0.00 | 56 | 1022.3 |
| 20260830213104 | 68 | 110 | 1.7 | 1.7 | 0.00 | 0.00 | 0.00 | 57 | 1022.3 |
| 20260830212600 | 68 | 116 | 1.7 | 3.5 | 0.00 | 0.00 | 0.00 | 58 | 1022.3 |
| 20260830212055 | 69 | 106 | 0.9 | 1.7 | 0.00 | 0.00 | 0.00 | 57 | 1022.3 |
| 20260830211550 | 69 | 110 | 0.0 | 6.1 | 0.00 | 0.00 | 0.00 | 59 | 1022.3 |
| 20260830211049 | 69 | 118 | 0.0 | 0.9 | 0.00 | 0.00 | 0.00 | 58 | 1022.3 |
| 20260830210545 | 68 | 109 | 5.2 | 7.0 | 0.00 | 0.00 | 0.00 | 59 | 1022.3 |
| 20260830210043 | 67 | 190 | 3.5 | 7.0 | 0.00 | 0.00 | 0.00 | 61 | 1022.3 |
| 20260830205541 | 66 | 157 | 4.3 | 5.2 | 0.00 | 0.00 | 0.00 | 64 | 1022.3 |
| 20260830205037 | 66 | 154 | 3.5 | 6.1 | 0.00 | 0.00 | 0.00 | 64 | 1022.3 |
| 20260830204536 | 65 | 159 | 6.1 | 7.0 | 0.00 | 0.00 | 0.00 | 65 | 1022.3 |
| 20260830204036 | 65 | 251 | 0.9 | 3.5 | 0.00 | 0.00 | 0.00 | 67 | 1022.3 |
| 20260830203532 | 64 | 184 | 4.3 | 7.8 | 0.00 | 0.00 | 0.00 | 68 | 1022.3 |
| 20260830203032 | 66 | 99 | 0.9 | 2.6 | 0.00 | 0.00 | 0.00 | 66 | 1022.3 |
| 20260830202527 | 64 | 115 | 3.5 | 7.0 | 0.00 | 0.00 | 0.00 | 68 | 1022.3 |
| 20260830202023 | 66 | 117 | 2.6 | 5.2 | 0.00 | 0.00 | 0.00 | 64 | 1022.3 |
| 20260830201522 | 66 | 100 | 2.6 | 3.5 | 0.00 | 0.00 | 0.00 | 65 | 1022.3 |
| 20260830201017 | 67 | 186 | 3.5 | 6.1 | 0.00 | 0.00 | 0.00 | 64 | 1022.3 |
| 20260830200512 | 69 | 160 | 4.3 | 7.8 | 0.00 | 0.00 | 0.00 | 61 | 1022.3 |
| 20260830200011 | 66 | 156 | 3.5 | 6.1 | 0.00 | 0.00 | 0.00 | 66 | 1022.3 |
| 20260830195507 | 65 | 125 | 0.9 | 2.6 | 0.00 | 0.00 | 0.00 | 68 | 1022.3 |
| 20260830195005 | 64 | 179 | 5.2 | 7.0 | 0.00 | 0.00 | 0.00 | 70 | 1022.3 |
| 20260830194504 | 66 | 87 | 6.1 | 9.6 | 0.00 | 0.00 | 0.00 | 67 | 1022.3 |
| 20260830194004 | 65 | 161 | 1.7 | 6.1 | 0.00 | 0.00 | 0.00 | 66 | 1022.3 |
| 20260830193503 | 66 | 156 | 3.5 | 7.0 | 0.00 | 0.00 | 0.00 | 67 | 1022.6 |
| 20260830192959 | 66 | 128 | 0.0 | 3.5 | 0.00 | 0.00 | 0.00 | 66 | 1022.3 |
| 20260830192455 | 66 | 135 | 1.7 | 5.2 | 0.00 | 0.00 | 0.00 | 65 | 1022.6 |
| 20260830191950 | 65 | 108 | 0.9 | 5.2 | 0.00 | 0.00 | 0.00 | 67 | 1022.3 |
| 20260830191449 | 65 | 131 | 0.9 | 1.7 | 0.00 | 0.00 | 0.00 | 67 | 1022.6 |
| 20260830190940 | 65 | 16 | 0.9 | 1.7 | 0.00 | 0.00 | 0.00 | 68 | 1022.3 |
| 20260830190435 | 64 | 136 | 1.7 | 3.5 | 0.00 | 0.00 | 0.00 | 69 | 1022.3 |
| 20260830185934 | 65 | 103 | 0.0 | 1.7 | 0.00 | 0.00 | 0.00 | 68 | 1022.6 |
| 20260830185429 | 65 | 90 | 0.9 | 6.1 | 0.00 | 0.00 | 0.00 | 69 | 1022.6 |
| 20260830184925 | 65 | 169 | 0.9 | 2.6 | 0.00 | 0.00 | 0.00 | 69 | 1022.6 |
| 20260830184424 | 63 | 107 | 0.0 | 1.7 | 0.00 | 0.00 | 0.00 | 73 | 1022.6 |
| 20260830183923 | 62 | 257 | 1.7 | 2.6 | 0.00 | 0.00 | 0.00 | 74 | 1022.6 |
| 20260830183418 | 62 | 115 | 1.7 | 2.6 | 0.00 | 0.00 | 0.00 | 75 | 1022.6 |
| 20260830182914 | 63 | 106 | 0.0 | 0.9 | 0.00 | 0.00 | 0.00 | 74 | 1022.9 |
| 20260830182409 | 64 | 102 | 0.9 | 1.7 | 0.00 | 0.00 | 0.00 | 72 | 1022.6 |
| 20260830181906 | 63 | 101 | 0.0 | 1.7 | 0.00 | 0.00 | 0.00 | 73 | 1022.6 |
| 20260830181401 | 63 | 90 | 0.9 | 1.7 | 0.00 | 0.00 | 0.00 | 73 | 1022.6 |
| 20260830180900 | 64 | 105 | 0.9 | 1.7 | 0.00 | 0.00 | 0.00 | 72 | 1022.6 |
| 20260830180355 | 64 | 99 | 0.9 | 0.9 | 0.00 | 0.00 | 0.00 | 71 | 1022.6 |
| 20260830175854 | 63 | 120 | 0.0 | 1.7 | 0.00 | 0.00 | 0.00 | 73 | 1022.6 |
| 20260830175348 | 63 | 115 | 2.6 | 3.5 | 0.00 | 0.00 | 0.00 | 74 | 1022.3 |
| 20260830174849 | 63 | 171 | 0.9 | 6.1 | 0.00 | 0.00 | 0.00 | 73 | 1022.3 |
| 20260830174344 | 63 | 97 | 0.9 | 0.9 | 0.00 | 0.00 | 0.00 | 73 | 1022.3 |
| 20260830173839 | 62 | 97 | 0.9 | 1.7 | 0.00 | 0.00 | 0.00 | 74 | 1022.3 |
| 20260830173334 | 63 | 93 | 1.7 | 1.7 | 0.00 | 0.00 | 0.00 | 74 | 1022.3 |
| 20260830172830 | 63 | 163 | 1.7 | 5.2 | 0.00 | 0.00 | 0.00 | 74 | 1022.3 |
| 20260830172327 | 63 | 113 | 0.9 | 1.7 | 0.00 | 0.00 | 0.00 | 73 | 1022.3 |
| 20260830171822 | 62 | 116 | 1.7 | 1.7 | 0.00 | 0.00 | 0.00 | 74 | 1022.3 |
| 20260830171318 | 62 | 102 | 0.9 | 1.7 | 0.00 | 0.00 | 0.00 | 73 | 1022.3 |
| 20260830170813 | 61 | 175 | 3.5 | 5.2 | 0.00 | 0.00 | 0.00 | 75 | 1022.3 |
| 20260830170312 | 62 | 190 | 2.6 | 7.8 | 0.00 | 0.00 | 0.00 | 74 | 1022.3 |
| 20260830165811 | 61 | 141 | 5.2 | 7.8 | 0.00 | 0.00 | 0.00 | 75 | 1022.3 |
| 20260830165307 | 60 | 184 | 3.5 | 6.1 | 0.00 | 0.00 | 0.00 | 77 | 1022.3 |
| 20260830164803 | 60 | 105 | 5.2 | 7.0 | 0.00 | 0.00 | 0.00 | 77 | 1022.3 |
| 20260830164259 | 60 | 181 | 4.3 | 6.1 | 0.00 | 0.00 | 0.00 | 78 | 1022.3 |
| 20260830163755 | 59 | 123 | 0.9 | 3.5 | 0.00 | 0.00 | 0.00 | 79 | 1022.3 |
| 20260830163245 | 59 | 109 | 1.7 | 5.2 | 0.00 | 0.00 | 0.00 | 79 | 1022.6 |
| 20260830162739 | 59 | 105 | 0.9 | 1.7 | 0.00 | 0.00 | 0.00 | 79 | 1022.3 |
| 20260830162236 | 59 | 119 | 1.7 | 3.5 | 0.00 | 0.00 | 0.00 | 80 | 1022.6 |
| 20260830161731 | 59 | 103 | 0.0 | 1.7 | 0.00 | 0.00 | 0.00 | 80 | 1022.3 |
| 20260830161230 | 58 | 107 | 0.0 | 5.2 | 0.00 | 0.00 | 0.00 | 80 | 1022.3 |
| 20260830160726 | 58 | 112 | 2.6 | 2.6 | 0.00 | 0.00 | 0.00 | 80 | 1022.3 |
| 20260830160226 | 58 | 106 | 1.7 | 3.5 | 0.00 | 0.00 | 0.00 | 80 | 1022.3 |
| 20260830155723 | 58 | 119 | 1.7 | 3.5 | 0.00 | 0.00 | 0.00 | 81 | 1022.3 |
| 20260830155218 | 58 | 139 | 0.0 | 2.6 | 0.00 | 0.00 | 0.00 | 81 | 1022.3 |
| 20260830154713 | 57 | 120 | 0.9 | 1.7 | 0.00 | 0.00 | 0.00 | 81 | 1022.3 |
| 20260830154208 | 57 | 117 | 0.0 | 0.9 | 0.00 | 0.00 | 0.00 | 82 | 1022.3 |
| 20260830153705 | 57 | 143 | 0.9 | 2.6 | 0.00 | 0.00 | 0.00 | 82 | 1022.6 |
| 20260830153200 | 57 | 123 | 1.7 | 1.7 | 0.00 | 0.00 | 0.00 | 83 | 1022.3 |
| 20260830152659 | 57 | 152 | 1.7 | 2.6 | 0.00 | 0.00 | 0.00 | 83 | 1022.3 |
| 20260830152158 | 57 | 173 | 1.7 | 2.6 | 0.00 | 0.00 | 0.00 | 82 | 1022.3 |
| 20260830151653 | 57 | 108 | 0.0 | 1.7 | 0.00 | 0.00 | 0.00 | 82 | 1022.3 |
| 20260830151152 | 57 | 111 | 0.9 | 2.6 | 0.00 | 0.00 | 0.00 | 82 | 1022.3 |
| 20260830150648 | 57 | 107 | 0.0 | 0.9 | 0.00 | 0.00 | 0.00 | 82 | 1022.3 |
| 20260830150143 | 57 | 132 | 0.9 | 1.7 | 0.00 | 0.00 | 0.00 | 82 | 1022.3 |
| 20260830145642 | 57 | 117 | 0.9 | 1.7 | 0.00 | 0.00 | 0.00 | 83 | 1022.3 |
| 20260830145137 | 57 | 160 | 1.7 | 1.7 | 0.00 | 0.00 | 0.00 | 83 | 1022.3 |
| 20260830144632 | 57 | 110 | 0.9 | 0.9 | 0.00 | 0.00 | 0.00 | 84 | 1022.3 |
| 20260830144128 | 56 | 119 | 0.0 | 0.9 | 0.00 | 0.00 | 0.00 | 85 | 1022.3 |
| 20260830143625 | 56 | 115 | 0.0 | 0.0 | 0.00 | 0.00 | 0.00 | 85 | 1022.3 |
| 20260830143122 | 56 | 119 | 0.0 | 0.9 | 0.00 | 0.00 | 0.00 | 86 | 1022.3 |
| 20260830142618 | 55 | 123 | 0.0 | 0.9 | 0.00 | 0.00 | 0.00 | 86 | 1022.3 |
| 20260830142112 | 55 | 114 | 0.9 | 0.9 | 0.00 | 0.00 | 0.00 | 86 | 1021.9 |
| 20260830141608 | 55 | 137 | 0.0 | 0.9 | 0.00 | 0.00 | 0.00 | 87 | 1022.3 |
| 20260830141103 | 55 | 145 | 0.0 | 0.9 | 0.00 | 0.00 | 0.00 | 87 | 1022.3 |
| 20260830140557 | 55 | 139 | 0.9 | 0.9 | 0.00 | 0.00 | 0.00 | 87 | 1022.3 |
| 20260830140053 | 55 | 121 | 0.0 | 0.9 | 0.00 | 0.00 | 0.00 | 86 | 1022.3 |
| 20260830135547 | 55 | 142 | 0.9 | 0.9 | 0.00 | 0.00 | 0.00 | 86 | 1022.3 |
| 20260830135042 | 55 | 150 | 0.9 | 1.7 | 0.00 | 0.00 | 0.00 | 85 | 1021.9 |
| 20260830134539 | 55 | 148 | 0.0 | 1.7 | 0.00 | 0.00 | 0.00 | 85 | 1021.9 |
| 20260830134034 | 55 | 177 | 2.6 | 2.6 | 0.00 | 0.00 | 0.00 | 84 | 1021.9 |
| 20260830133529 | 56 | 176 | 0.9 | 1.7 | 0.00 | 0.00 | 0.00 | 84 | 1021.9 |